Weather Roundup
Issued by NWS

Home | Current Version | Previous Version | Text Only | Print | Product List | Glossary On
Versions: 1 2 3 4 5 6 7 8 9 10 11 12 13 14 15 16 17 18 19 20 21 22 23 24 25 26 27 28 29 30 31 32 33 34 35 36 37 38 39 40 41 42 43 44 45 46 47 48 49 50
384
NZUS93 KARX 261159
HRRWXR

CURRENT HOURLY OBSERVATIONS ACROSS
MUCH OF THE UPPER MISSISSIPPI VALLEY
NATIONAL WEATHER SERVICE LA CROSSE WI
700 AM CDT WED JUL 26 2017


...SOUTHEAST MINNESOTA...


CITY           SKY/WX    TMP DP  RH WIND       PRES   REMARKS
ROCHESTER      CLOUDY    70  68  93 NE8       30.05R
ROCHESTER/MAYO CLOUDY    69  69  98 CALM      30.05R
WINONA         LGT RAIN  72  68  88 NW10G18   30.03R
AUSTIN         CLOUDY    72  68  88 NE6G16    30.03R
ALBERT LEA     LGT RAIN  73  70  88 N12       30.03R
DODGE CENTER   LGT RAIN  68  66  94 E5        30.03R
PRESTON        CLOUDY    70  66  88 N3        30.05R
OWATONNA       CLOUDY    70  66  88 S10       30.04R
FARIBAULT      CLOUDY    70  70 100 E3        30.00F
$$

...ELSEWHERE IN MINNESOTA...


CITY           SKY/WX    TMP DP  RH WIND       PRES   REMARKS
MINNEAPOLIS    CLOUDY    73  69  87 CALM      29.97R
INTNL FALLS    SUNNY     61  57  87 NW6       29.94S
DULUTH         CLOUDY    64  63  96 W5        29.99R
RED WING       LGT RAIN  70  66  88 SE7       29.98S
REDWOOD FALLS  CLOUDY    71  68  90 CALM      29.99R
MANKATO        LGT RAIN  71  69  93 SE5       30.00R
WORTHINGTON    LGT RAIN  69  67  93 CALM      30.04R
FAIRMONT       CLOUDY    73  70  90 CALM      30.01R
$$

...SOUTHWEST WISCONSIN...


CITY           SKY/WX    TMP DP  RH WIND       PRES   REMARKS
LA CROSSE      CLOUDY    75  69  81 VRB6      30.00R
PRAIRIE DU CHI CLOUDY    72  66  82 CALM      30.01F
BOSCOBEL       CLOUDY    71  67  87 CALM      30.03S
LONE ROCK      NOT AVBL
PLATTEVILLE    MOSUNNY   68  68 100 SE6       30.05F
FORT MC COY    CLOUDY    69  66  90 SW3       30.01S
MAUSTON-NEW LI CLOUDY    71  67  87 S3        30.00F
VIROQUA        FAIR      68  68 100 S7        30.03S
WIS DELLS      CLOUDY    70  63  80 SW9       30.03F
$$

...ELSEWHERE IN WISCONSIN...


CITY           SKY/WX    TMP DP  RH WIND       PRES   REMARKS
MILWAUKEE      CLOUDY    69  60  73 SW10      30.07R
MADISON        CLOUDY    68  63  84 S8        30.05F
GREEN BAY      CLOUDY    68  65  90 SW8       30.00F
EAU CLAIRE     RAIN      70  70 100 CALM      30.01S FOG
BLACK RVR FLS  PTSUNNY   67  67 100 W5        30.00S
MEDFORD        LGT RAIN  67  66  97 SW6       30.01R
WAUSAU         CLOUDY    67  66  97 S3        29.99F FOG
WIS RAPIDS     CLOUDY    69  66  90 S8        30.02S
MARSHFIELD     CLOUDY    67  65  93 SW5       30.00R FOG
RICE LAKE      RAIN      70  67  90 W10G16    30.01F
$$

...NORTHEAST IOWA...


CITY           SKY/WX    TMP DP  RH WIND       PRES   REMARKS
WATERLOO       PTSUNNY   71  68  90 S5        30.01R
DUBUQUE        MOSUNNY   68  66  93 S9        30.05S FOG
DECORAH        CLOUDY    70  68  94 S7        30.01S
MASON CITY     CLOUDY    71  69  93 SE5       30.03R FOG
CHARLES CITY   CLOUDY    70  70 100 S6        30.03R
OELWEIN        MOSUNNY   72  72 100 S8        30.03S
$$

...ELSEWHERE IN IOWA...


CITY           SKY/WX    TMP DP  RH WIND       PRES   REMARKS
DES MOINES     CLOUDY    75  69  81 S7        29.99R
IOWA CITY      PTSUNNY   72  68  87 SE5       30.04S
FORT DODGE     CLOUDY    73  70  88 S5        30.00S
MARSHALLTOWN   CLOUDY    72  69  90 S7        30.00R
CEDAR RAPIDS   NOT AVBL
$$

...NORTHERN ILLINOIS...


CITY           SKY/WX    TMP DP  RH WIND       PRES   REMARKS
CHICAGO-OHARE  PTSUNNY   68  60  75 S7        30.09S
CHICAGO-MIDWAY CLOUDY    69  60  73 S7        30.09S
MOLINE         MOSUNNY   72  66  81 S6        30.04S
ROCKFORD       CLOUDY    67  62  84 S6        30.09R
PEORIA         MOSUNNY   70  66  87 CALM      30.07R
$$

NOTE: "FAIR" INDICATES FEW OR NO CLOUDS BELOW 12,000 FEET WITH NO
SIGNIFICANT WEATHER AND/OR OBSTRUCTIONS TO VISIBILITY. WIND
SPEEDS ARE IN MILES-PER-HOUR.




USA.gov is the U.S. government's official web portal to all federal, state and local government web resources and services.